Flag for El Salvador Weather past 2 weeks in San Salvador, El Salvador

Now
77 °F

Scattered clouds.


Feels Like: 78 °F
Forecast: 70 / 84 °F
Wind: 3 mph from North

Location: El Salvador Intl. Airport / Comalapa

Current Time: Sep 4, 2015 at 6:43:13 AM

Latest Report: Sep 4, 2015 at 5:50 AM


Visibility: N/A

Pressure: 29.83 "Hg (27.63 "Hg at 667m altitude)

Humidity: 83%

Dew point: 72 °F

Location of San SalvadorLocation

Historic Weather in San Salvador — Graph

°F

San Salvador temperature yesterday

Maximum temperature yesterday: 93 °F (at 11:50 AM)
Minimum temperature yesterday: 73 °F (at 5:50 AM)
Average temperature yesterday: 82 °F

Past Weeks' High & Low Weather Summary

 TemperatureHumidityPressure
High97 °F (Aug 21, 11:50 AM)100% (Sep 1, 1:50 AM)30.01 "Hg (Sep 1, 1:50 AM)
Low72 °F (Sep 2, 7:50 PM)37% (Aug 21, 11:50 AM)29.53 "Hg (Aug 23, 1:50 PM)
Average84 °F73%29.83 "Hg
* Reported Aug 20 4:50 AM — Sep 4 4:50 AM, San Salvador, Weather by CustomWeather, © 2015

Note: Actual official high and low records may vary slightly from our data, if they occured in-between our weather recording intervals... More about our weather records

Advertising

San Salvador weather history for previous 24 hours

 ConditionsComfort  
Time TempWeatherWind HumidityBarometerVisibility
4:50 AM
Fri, Sep 4
77 °FPassing clouds.7 mph83%29.83 "HgN/A
3:50 AM77 °FPassing clouds.8 mph83%29.83 "HgN/A
1:50 AM77 °FClear.1 mph83%29.83 "Hg10 mi
12:50 AM77 °FPassing clouds.9 mph83%29.86 "HgN/A
11:50 PM
Thu, Sep 3
75 °FClear.14 mph89%29.86 "Hg10 mi
10:50 PM77 °FPassing clouds.2 mph83%29.86 "HgN/A
9:50 PM79 °FPassing clouds.8 mph84%29.86 "HgN/A
8:50 PM79 °FLight rain. Passing clouds.9 mph89%29.86 "HgN/A
7:50 PM82 °FRain. Partly cloudy.7 mph84%29.86 "HgN/A
6:50 PM82 °FPassing clouds.2 mph84%29.80 "HgN/A
5:50 PM86 °FPassing clouds.1 mph75%29.80 "HgN/A
4:50 PM88 °FPassing clouds.6 mph66%29.77 "HgN/A
3:50 PM88 °FScattered clouds.5 mph66%29.77 "HgN/A
2:50 PM90 °FPassing clouds.9 mph63%29.77 "HgN/A
1:50 PM93 °FPassing clouds.8 mph59%29.77 "HgN/A
12:50 PM91 °FScattered clouds.8 mph56%29.80 "HgN/A
11:50 AM93 °FPassing clouds.3 mph49%29.83 "HgN/A
10:50 AM90 °FPassing clouds.7 mph55%29.86 "HgN/A
9:50 AM90 °FPassing clouds.3 mph63%29.86 "HgN/A
8:50 AM84 °FPassing clouds.5 mph74%29.86 "HgN/A
7:50 AM81 °FPassing clouds.6 mph74%29.86 "HgN/A
6:50 AM77 °FPassing clouds.5 mph79%29.83 "HgN/A
Weather by CustomWeather, © 2015

See weather overviewHow to use our weather pages